Date String (YYYY-MM-DD hh:mm:ss) UTC,Instrument flags,absolute air pressure of the measurement (hPa),sample flow rate (lpm),inlet stack bypass flow (lpm),air temperature of the measurement (°C),ambient temperature measured by the external sensor (°C),aerosol sample conditioner tube jacket temperature (°C),OPC LED temperature (°C),internal box temperature (°C),relative humidity of the measurement (%),span deviation,mass concentration of particles derived from Lorenz-Mie calculation of OPC scattering (μg/m³),mass concentration of particles derived from Lorenz-Mie calculation of OPC scattering (μg/m³),mass concentration of particles derived from Lorenz-Mie calculation of OPC scattering (μg/m³)
DateTimeUTC,F1_M11,P_M11,Q1_M11,Q2_M11,T1_M11,T2_M11,T3_M11,T4_M11,T5_M11,U1_M11,ZSPAN_M11,X0_M11,X2_M11,X1_M11
2024-06-02 07:00:00,SystemResetWarning,0826.8,5.00,000.00,031.2,030.5,000.0,039.5,032.9,017.3,0000.0,0013.70,0004.08,0003.10
2024-06-02 07:01:00,SystemResetWarning,0826.8,4.98,000.00,031.1,029.2,000.0,039.6,032.2,017.8,0000.0,0013.05,0004.03,0003.10
2024-06-02 07:02:00,SystemResetWarning,0826.7,5.02,000.00,030.6,026.7,000.0,039.6,031.0,018.9,0000.0,0012.93,0004.01,0003.11
2024-06-02 07:03:00,SystemResetWarning,0826.6,5.00,000.00,030.3,026.5,000.0,039.5,030.8,019.4,0000.0,0012.62,0004.01,0003.13
2024-06-02 07:04:00,SystemResetWarning,0826.6,4.99,000.00,030.1,026.9,000.0,039.3,030.9,019.5,0000.0,0011.83,0004.01,0003.16
2024-06-02 07:05:00,SystemResetWarning,0826.6,5.00,000.00,030.0,027.3,000.0,039.1,031.1,019.5,0000.0,0011.52,0004.07,0003.18
2024-06-02 07:06:00,SystemResetWarning,0826.7,5.01,000.00,030.1,027.7,000.0,039.0,031.3,019.6,0000.0,0012.09,0004.12,0003.20
2024-06-02 07:07:00,SystemResetWarning,0826.7,4.99,000.00,030.1,028.1,000.0,038.9,031.4,019.6,0000.0,0012.14,0004.16,0003.22
2024-06-02 07:08:00,SystemResetWarning,0826.7,5.00,000.00,030.1,028.4,000.0,038.9,031.5,019.6,0000.0,0011.86,0004.21,0003.23
2024-06-02 07:09:00,SystemResetWarning,0826.7,5.00,000.00,030.1,028.6,000.0,038.8,031.7,019.7,0000.0,0012.33,0004.23,0003.26
2024-06-02 07:10:00,SystemResetWarning,0826.6,5.00,000.00,030.1,028.8,000.0,038.8,031.7,019.7,0000.0,0012.47,0004.29,0003.27
2024-06-02 07:11:00,SystemResetWarning,0826.6,4.99,000.00,030.1,028.9,000.0,038.7,031.8,019.7,0000.0,0012.71,0004.35,0003.29
2024-06-02 07:12:00,SystemResetWarning,0826.6,4.99,000.00,030.1,029.1,000.0,038.7,031.8,019.8,0000.0,0013.05,0004.44,0003.30
2024-06-02 07:13:00,SystemResetWarning,0826.6,5.00,000.00,030.2,029.2,000.0,038.7,031.9,019.9,0000.0,0012.95,0004.45,0003.30
2024-06-02 07:14:00,SystemResetWarning,0826.6,5.00,000.00,030.2,029.3,000.0,038.7,031.9,020.0,0000.0,0013.62,0004.46,0003.30
2024-06-02 07:15:00,SystemResetWarning,0826.6,5.00,000.00,030.2,029.3,000.0,038.7,031.9,020.0,0000.0,0014.01,0004.48,0003.30
2024-06-02 07:16:00,SystemResetWarning,0826.6,5.00,000.00,030.2,029.4,000.0,038.7,032.0,020.0,0000.0,0014.45,0004.43,0003.29
2024-06-02 07:17:00,SystemResetWarning,0826.6,5.00,000.00,030.2,029.5,000.0,038.7,032.0,020.1,0000.0,0014.75,0004.41,0003.28
2024-06-02 07:18:00,SystemResetWarning,0826.6,5.01,000.00,030.3,029.5,000.0,038.7,032.0,020.1,0000.0,0014.80,0004.40,0003.28
2024-06-02 07:19:00,SystemResetWarning,0826.6,5.00,000.00,030.3,029.6,000.0,038.7,032.0,020.1,0000.0,0015.00,0004.37,0003.27
2024-06-02 07:20:00,SystemResetWarning,0826.6,5.00,000.00,030.3,029.6,000.0,038.7,032.1,020.1,0000.0,0014.85,0004.34,0003.26
2024-06-02 07:21:00,SystemResetWarning,0826.6,4.99,000.00,030.4,029.6,000.0,038.7,032.1,020.2,0000.0,0015.86,0004.35,0003.26
2024-06-02 07:22:00,SystemResetWarning,0826.6,5.00,000.00,030.4,029.7,000.0,038.7,032.1,020.2,0000.0,0017.40,0004.32,0003.26
2024-06-02 07:23:00,SystemResetWarning,0826.7,5.00,000.00,030.4,029.7,000.0,038.8,032.1,020.2,0000.0,0017.61,0004.25,0003.26
2024-06-02 07:24:00,SystemResetWarning,0826.8,5.00,000.00,030.4,029.7,000.0,038.8,032.1,020.2,0000.0,0017.93,0004.24,0003.27
2024-06-02 07:25:00,SystemResetWarning,0826.8,5.01,000.00,030.4,029.7,000.0,038.8,032.2,020.2,0000.0,0017.26,0004.21,0003.26
2024-06-02 07:26:00,SystemResetWarning,0826.8,5.00,000.00,030.5,029.8,000.0,038.8,032.2,020.2,0000.0,0017.26,0004.18,0003.26
2024-06-02 07:27:00,SystemResetWarning,0826.8,5.01,000.00,030.5,029.8,000.0,038.8,032.2,020.2,0000.0,0017.42,0004.17,0003.27
2024-06-02 07:28:00,SystemResetWarning,0826.8,5.00,000.00,030.5,029.8,000.0,038.8,032.3,020.1,0000.0,0016.31,0004.17,0003.28
2024-06-02 07:29:00,SystemResetWarning,0826.8,5.00,000.00,030.5,029.8,000.0,038.8,032.3,020.1,0000.0,0016.06,0004.17,0003.29
2024-06-02 07:30:00,SystemResetWarning,0826.8,5.00,000.00,030.5,029.8,000.0,038.8,032.3,020.2,0000.0,0016.49,0004.23,0003.29
2024-06-02 07:31:00,SystemResetWarning,0826.8,4.99,000.00,030.5,029.9,000.0,038.9,032.3,020.2,0000.0,0016.63,0004.27,0003.30
2024-06-02 07:32:00,SystemResetWarning,0826.8,4.99,000.00,030.5,029.9,000.0,038.9,032.3,020.0,0000.0,0015.99,0004.24,0003.29
2024-06-02 07:33:00,SystemResetWarning,0826.8,5.00,000.00,030.6,029.9,000.0,038.9,032.3,019.9,0000.0,0014.44,0004.26,0003.30
2024-06-02 07:34:00,SystemResetWarning,0826.7,5.00,000.00,030.6,029.9,000.0,038.9,032.3,019.9,0000.0,0015.11,0004.28,0003.30
2024-06-02 07:35:00,SystemResetWarning,0826.6,5.00,000.00,030.6,029.9,000.0,038.9,032.3,019.9,0000.0,0015.65,0004.29,0003.31
2024-06-02 07:36:00,SystemResetWarning,0826.6,5.00,000.00,030.6,029.9,000.0,038.9,032.3,019.9,0000.0,0015.93,0004.35,0003.31
2024-06-02 07:37:00,SystemResetWarning,0826.6,5.01,000.00,030.6,029.9,000.0,038.9,032.3,019.8,0000.0,0015.72,0004.43,0003.32
2024-06-02 07:38:00,SystemResetWarning,0826.6,5.00,000.00,030.6,029.9,000.0,039.0,032.3,019.7,0000.0,0015.26,0004.46,0003.32
2024-06-02 07:39:00,SystemResetWarning,0826.6,5.00,000.00,030.6,029.9,000.0,039.0,032.4,019.6,0000.0,0015.87,0004.46,0003.32
2024-06-02 07:40:00,SystemResetWarning,0826.6,4.99,000.00,030.6,029.9,000.0,039.0,032.4,019.5,0000.0,0017.13,0004.49,0003.33
2024-06-02 07:41:00,SystemResetWarning,0826.6,4.99,000.00,030.7,029.9,000.0,039.0,032.4,019.5,0000.0,0018.20,0004.49,0003.35
2024-06-02 07:42:00,SystemResetWarning,0826.6,5.00,000.00,030.7,029.9,000.0,039.0,032.3,019.5,0000.0,0017.59,0004.47,0003.36
2024-06-02 07:43:00,SystemResetWarning,0826.6,5.01,000.00,030.7,030.0,000.0,039.0,032.4,019.5,0000.0,0017.82,0004.48,0003.37
2024-06-02 07:44:00,SystemResetWarning,0826.6,5.00,000.00,030.7,030.0,000.0,039.0,032.4,019.6,0000.0,0018.06,0004.50,0003.38
2024-06-02 07:45:00,SystemResetWarning,0826.6,5.00,000.00,030.7,030.0,000.0,039.0,032.4,019.7,0000.0,0017.14,0004.50,0003.38
2024-06-02 07:46:00,SystemResetWarning,0826.6,5.00,000.00,030.7,030.0,000.0,039.1,032.4,019.7,0000.0,0016.04,0004.50,0003.37
2024-06-02 07:47:00,SystemResetWarning,0826.7,5.00,000.00,030.7,030.0,000.0,039.1,032.4,019.8,0000.0,0015.07,0004.44,0003.38
2024-06-02 07:48:00,SystemResetWarning,0826.7,5.01,000.00,030.7,030.0,000.0,039.1,032.4,019.9,0000.0,0014.64,0004.35,0003.38
2024-06-02 07:49:00,SystemResetWarning,0826.6,5.00,000.00,030.7,030.0,000.0,039.1,032.4,019.8,0000.0,0014.57,0004.30,0003.38
2024-06-02 07:50:00,SystemResetWarning,0826.6,5.00,000.00,030.7,030.0,000.0,039.1,032.4,019.8,0000.0,0014.40,0004.31,0003.39
2024-06-02 07:51:00,SystemResetWarning,0826.6,5.00,000.00,030.7,030.0,000.0,039.1,032.4,019.8,0000.0,0013.02,0004.29,0003.39
2024-06-02 07:52:00,SystemResetWarning,0826.6,5.01,000.00,030.8,030.0,000.0,039.1,032.4,019.8,0000.0,0011.31,0004.28,0003.39
2024-06-02 07:53:00,SystemResetWarning,0826.6,5.00,000.00,030.8,030.0,000.0,039.2,032.4,019.8,0000.0,0011.83,0004.32,0003.40
2024-06-02 07:54:00,SystemResetWarning,0826.6,5.00,000.00,030.8,030.0,000.0,039.2,032.4,019.8,0000.0,0011.56,0004.34,0003.41
2024-06-02 07:55:00,SystemResetWarning,0826.6,4.99,000.00,030.8,030.0,000.0,039.2,032.4,019.7,0000.0,0010.95,0004.29,0003.42
2024-06-02 07:56:00,SystemResetWarning,0826.6,5.01,000.00,030.8,030.0,000.0,039.2,032.5,019.7,0000.0,0010.80,0004.26,0003.42
2024-06-02 07:57:00,SystemResetWarning,0826.6,5.01,000.00,030.8,030.0,000.0,039.2,032.5,019.8,0000.0,0010.87,0004.24,0003.43
2024-06-02 07:58:00,SystemResetWarning,0826.6,4.99,000.00,030.8,030.0,000.0,039.2,032.5,019.8,0000.0,0012.47,0004.29,0003.42
2024-06-02 07:59:00,SystemResetWarning,0826.6,5.00,000.00,030.8,030.0,000.0,039.2,032.5,019.9,0000.0,0012.83,0004.33,0003.43
